M I D A S
Marine Information and Data Acquisition System
Tripno 1709 of the Zeeleeuw from 2009-06-15 06:11:10 to 2009-06-15 16:47:28
Back to CruiseResearch ActivitiesStationsMapUnderway DataData graphs

EquipmentUnitsComments
TimeDGPSUTC
LatitudeDGPSDM.mWGS84
LongitudeDGPSDM.mWGS84
SpeedMeteo Stationm/sRelative wind speed
DirectionMeteo StationdegRelative wind direction
TemperatureMeteo Stationdeg CelciusAir temperature
PressureMeteo StationPaAtmospheric pressure
HumidityMeteo Station%Relative humidity
Missing or incorrect values are displayed as -999
Metereological data collected by the RV Zeeleeuw from 2009-06-15 06:13:37 to 2009-06-15 16:59:58
Time Latitude Longitude Speed Direction Temperature Pressure Humidity
2009-06-15 06:14 51°13.677 2°55.891 1.1 286 15.8 101580 91
2009-06-15 06:15 51°13.696 2°55.806 1.7 285 15.9 101570 91
2009-06-15 06:16 51°13.737 2°55.722 2.6 281 15.9 101560 91
2009-06-15 06:17 51°13.778 2°55.679 0.9 277 15.9 101550 91
2009-06-15 06:18 51°13.807 2°55.661 3.6 278 15.9 101550 91
2009-06-15 06:19 51°13.866 2°55.641 2.7 279 15.8 101550 90
2009-06-15 06:20 51°13.924 2°55.643 1.8 279 15.8 101550 91
2009-06-15 06:21 51°13.944 2°55.647 2.8 76 15.8 101550 91
2009-06-15 06:22 51°13.95 2°55.607 1 80 15.7 101550 91
2009-06-15 06:23 51°14.007 2°55.53 1.6 357 15.7 101560 92
2009-06-15 06:24 51°14.122 2°55.419 2.7 283 15.7 101550 92
2009-06-15 06:25 51°14.253 2°55.266 2 281 15.6 101550 91
2009-06-15 06:26 51°14.383 2°55.061 2.9 286 15.6 101550 92
2009-06-15 06:27 51°14.542 2°54.874 3.6 279 15.6 101550 92
2009-06-15 06:28 51°14.703 2°54.692 3.6 350 15.6 101540 92
2009-06-15 06:29 51°14.865 2°54.51 4.1 357 15.5 101540 92
2009-06-15 06:30 51°15.027 2°54.331 2.6 360 15.5 101520 92
2009-06-15 06:31 51°15.128 2°54.071 2 285 15.5 101520 92
2009-06-15 06:32 51°15.147 2°53.769 2.8 280 15.4 101520 92
2009-06-15 06:33 51°15.178 2°53.465 2 283 15.5 101530 92
2009-06-15 06:34 51°15.22 2°53.168 1.3 286 15.5 101530 92
2009-06-15 06:35 51°15.267 2°52.872 1.3 276 15.6 101530 92
2009-06-15 06:36 51°15.312 2°52.576 1.9 279 15.5 101530 92
2009-06-15 06:37 51°15.361 2°52.282 2.1 278 15.6 101540 92
2009-06-15 06:38 51°15.411 2°51.989 3 278 15.7 101540 92
2009-06-15 06:39 51°15.462 2°51.696 2.2 284 15.7 101560 88
2009-06-15 06:40 51°15.515 2°51.402 3.1 286 15.7 101550 87
2009-06-15 06:41 51°15.562 2°51.106 2.6 278 15.7 101550 89
2009-06-15 06:42 51°15.611 2°50.81 3.3 280 15.7 101550 89
2009-06-15 06:43 51°15.661 2°50.515 4 287 15.8 101570 90
2009-06-15 06:44 51°15.713 2°50.224 4.2 280 15.8 101580 90
2009-06-15 06:45 51°15.768 2°49.932 5.3 281 15.9 101580 90
2009-06-15 06:46 51°15.818 2°49.636 5.2 285 15.9 101580 92
2009-06-15 06:47 51°15.862 2°49.341 4.6 285 15.9 101570 92
2009-06-15 06:48 51°15.884 2°49.04 5 278 15.9 101570 91
2009-06-15 06:49 51°15.886 2°48.736 6.3 279 15.9 101580 91
2009-06-15 06:50 51°15.891 2°48.432 6.5 277 15.9 101590 91
2009-06-15 06:51 51°15.906 2°48.127 6.3 326 15.8 101590 90
2009-06-15 06:52 51°15.92 2°47.823 7 286 15.9 101590 90
2009-06-15 06:53 51°15.932 2°47.522 6.2 325 15.9 101600 90
2009-06-15 06:54 51°15.945 2°47.22 6.8 285 15.8 101600 90
2009-06-15 06:55 51°15.967 2°46.92 5.6 279 15.8 101610 91
2009-06-15 06:56 51°16.022 2°46.629 5.9 328 15.8 101620 91
2009-06-15 06:57 51°16.094 2°46.35 7.1 284 15.7 101630 91
2009-06-15 06:58 51°16.184 2°46.081 7.6 282 15.7 101640 91
2009-06-15 06:59 51°16.274 2°45.806 7.6 282 15.7 101640 92
2009-06-15 07:00 51°16.368 2°45.53 6.4 280 15.6 101650 91
2009-06-15 07:01 51°16.511 2°45.303 8.1 281 15.6 101650 91
2009-06-15 07:02 51°16.652 2°45.075 6.8 281 15.6 101650 91
2009-06-15 07:03 51°16.785 2°44.838 6.7 287 15.6 101660 91
2009-06-15 07:04 51°16.908 2°44.587 6.9 279 15.6 101660 91
2009-06-15 07:05 51°17.029 2°44.336 8.6 279 15.6 101670 91
2009-06-15 07:06 51°17.137 2°44.073 8.7 282 15.6 101670 92
2009-06-15 07:07 51°17.244 2°43.807 6.9 279 15.6 101670 91
2009-06-15 07:08 51°17.352 2°43.54 7.7 279 15.6 101670 92
2009-06-15 07:09 51°17.458 2°43.273 7 331 15.6 101670 92
2009-06-15 07:10 51°17.56 2°43.005 7.1 284 15.6 101670 92
2009-06-15 07:11 51°17.67 2°42.741 7.3 280 15.5 101670 92
2009-06-15 07:12 51°17.787 2°42.477 6.8 333 15.5 101680 92
2009-06-15 07:13 51°17.899 2°42.214 7.8 279 15.5 101680 92
2009-06-15 07:14 51°18.005 2°41.95 6.7 333 15.5 101690 93
2009-06-15 07:15 51°18.115 2°41.689 6.4 285 15.5 101680 93
2009-06-15 07:16 51°18.234 2°41.437 7.4 334 15.5 101680 93
2009-06-15 07:17 51°18.371 2°41.207 6.9 278 15.5 101680 93
2009-06-15 07:18 51°18.511 2°40.982 5.5 287 15.5 101670 93
2009-06-15 07:19 51°18.644 2°40.749 3.3 278 15.5 101670 93
2009-06-15 07:20 51°18.777 2°40.517 4.6 283 15.5 101660 93
2009-06-15 07:21 51°18.902 2°40.274 4.7 282 15.5 101650 93
2009-06-15 07:22 51°19.012 2°40.01 4.2 282 15.5 101650 93
2009-06-15 07:23 51°19.108 2°39.732 4 335 15.5 101640 93
2009-06-15 07:24 51°19.204 2°39.452 4.4 284 15.4 101630 94
2009-06-15 07:25 51°19.304 2°39.175 4.2 335 15.5 101630 93
2009-06-15 07:26 51°19.407 2°38.897 4.8 284 15.5 101630 93
2009-06-15 07:27 51°19.505 2°38.615 5.9 279 15.5 101640 93
2009-06-15 07:28 51°19.605 2°38.329 5.6 279 15.5 101640 93
2009-06-15 07:29 51°19.705 2°38.042 4.8 280 15.4 101630 93
2009-06-15 07:30 51°19.8 2°37.755 4.9 337 15.5 101640 93
2009-06-15 07:31 51°19.881 2°37.505 4.2 280 15.5 101640 93
2009-06-15 07:32 51°19.93 2°37.361 2.3 278 15.5 101650 93
2009-06-15 07:33 51°19.951 2°37.264 1.9 284 15.5 101650 93
2009-06-15 07:34 51°19.967 2°37.182 2 281 15.5 101650 93
2009-06-15 07:35 51°19.989 2°37.091 2 282 15.5 101650 93
2009-06-15 07:36 51°20.011 2°36.999 2.2 279 15.5 101650 93
2009-06-15 07:37 51°20.046 2°36.928 2.2 287 15.5 101650 93
2009-06-15 07:38 51°20.078 2°36.883 1.3 277 15.5 101640 92
2009-06-15 07:39 51°20.089 2°36.874 0.7 347 15.5 101650 92
2009-06-15 07:40 51°20.09 2°36.884 0.8 353 15.5 101650 92
2009-06-15 07:41 51°20.076 2°36.913 0.9 29 15.5 101650 92
2009-06-15 07:42 51°20.08 2°36.916 1.6 351 15.5 101650 92
2009-06-15 07:43 51°20.101 2°36.888 1.3 7 15.5 101640 92
2009-06-15 07:44 51°20.102 2°36.895 1.2 25 15.5 101620 92
2009-06-15 07:45 51°20.098 2°36.914 1.5 37 15.5 101620 92
2009-06-15 07:46 51°20.094 2°36.935 1.4 43 15.5 101610 92
2009-06-15 07:47 51°20.088 2°36.958 2.3 79 15.5 101610 93
2009-06-15 07:48 51°20.078 2°36.986 2.2 82 15.5 101610 92
2009-06-15 07:49 51°20.071 2°37.007 2.3 41 15.5 101620 93
2009-06-15 07:50 51°20.065 2°37.024 2.4 38 15.5 101620 93
2009-06-15 07:51 51°20.06 2°37.038 2.3 37 15.5 101620 93
2009-06-15 07:52 51°20.055 2°37.048 2.2 35 15.4 101620 93
2009-06-15 07:53 51°20.052 2°37.056 1.9 35 15.5 101620 93
2009-06-15 07:54 51°20.05 2°37.063 1.8 36 15.5 101620 93
2009-06-15 07:55 51°20.062 2°37.059 1.1 81 15.5 101620 90
2009-06-15 07:56 51°20.075 2°37.038 0.9 74 15.5 101630 91
2009-06-15 07:57 51°20.084 2°37.018 1.4 74 15.6 101630 92
2009-06-15 07:58 51°20.09 2°37.001 1.6 77 15.6 101640 92
2009-06-15 07:59 51°20.095 2°36.987 1.4 73 15.6 101640 92
2009-06-15 08:00 51°20.1 2°36.975 1.6 82 15.6 101640 92
2009-06-15 08:01 51°20.107 2°36.964 1.5 74 15.6 101630 92
2009-06-15 08:02 51°20.115 2°36.956 1.3 83 15.7 101620 93
2009-06-15 08:03 51°20.123 2°36.949 2.4 80 15.8 101630 94
2009-06-15 08:04 51°20.133 2°36.937 2.7 77 15.8 101620 92
2009-06-15 08:05 51°20.147 2°36.923 2.3 81 15.7 101620 88
2009-06-15 08:06 51°20.162 2°36.906 2.2 44 15.7 101620 88
2009-06-15 08:07 51°20.176 2°36.892 2.5 39 15.7 101620 90
2009-06-15 08:08 51°20.189 2°36.88 2.3 37 15.6 101630 91
2009-06-15 08:09 51°20.201 2°36.87 2.3 33 15.6 101630 91
2009-06-15 08:10 51°20.213 2°36.862 2 27 15.6 101640 91
2009-06-15 08:11 51°20.224 2°36.855 2.1 26 15.5 101640 92
2009-06-15 08:12 51°20.235 2°36.849 1.9 23 15.6 101640 91
2009-06-15 08:13 51°20.244 2°36.844 2 21 15.6 101640 92
2009-06-15 08:14 51°20.254 2°36.839 2.5 17 15.6 101640 94
2009-06-15 08:15 51°20.262 2°36.833 2.4 14 15.5 101630 94
2009-06-15 08:16 51°20.27 2°36.827 2.4 14 15.5 101630 94
2009-06-15 08:17 51°20.277 2°36.822 2.4 18 15.5 101620 94
2009-06-15 08:18 51°20.283 2°36.816 2.2 14 15.5 101620 94
2009-06-15 08:19 51°20.289 2°36.809 2.6 18 15.5 101620 95
2009-06-15 08:20 51°20.294 2°36.802 2.9 22 15.5 101620 95
2009-06-15 08:21 51°20.299 2°36.794 3.1 21 15.5 101610 94
2009-06-15 08:22 51°20.304 2°36.785 3 21 15.5 101610 95
2009-06-15 08:23 51°20.309 2°36.776 3 23 15.4 101600 95
2009-06-15 08:24 51°20.313 2°36.767 3.5 23 15.5 101600 95
2009-06-15 08:25 51°20.317 2°36.757 2.6 23 15.4 101600 95
2009-06-15 08:26 51°20.321 2°36.747 2.5 21 15.4 101610 95
2009-06-15 08:27 51°20.325 2°36.738 2.1 16 15.5 101620 95
2009-06-15 08:28 51°20.329 2°36.729 2 8 15.5 101620 95
2009-06-15 08:29 51°20.332 2°36.72 1.7 4 15.5 101630 95
2009-06-15 08:30 51°20.335 2°36.711 2.1 357 15.5 101640 96
2009-06-15 08:31 51°20.337 2°36.703 1.8 280 15.5 101640 96
2009-06-15 08:32 51°20.339 2°36.695 2.2 347 15.5 101650 96
2009-06-15 08:33 51°20.341 2°36.688 2.2 347 15.5 101650 96
2009-06-15 08:34 51°20.342 2°36.681 2.3 350 15.5 101650 96
2009-06-15 08:35 51°20.342 2°36.674 2.2 347 15.5 101660 96
2009-06-15 08:36 51°20.342 2°36.667 2.1 357 15.5 101650 96
2009-06-15 08:37 51°20.342 2°36.66 1.7 1 15.5 101660 96
2009-06-15 08:38 51°20.343 2°36.652 1.7 1 15.5 101660 96
2009-06-15 08:39 51°20.38 2°36.639 3.3 280 15.5 101650 96
2009-06-15 08:40 51°20.409 2°36.717 4.9 281 15.5 101650 97
2009-06-15 08:41 51°20.356 2°36.89 6.1 286 15.5 101640 97
2009-06-15 08:42 51°20.245 2°37.035 5.1 283 15.5 101630 97
2009-06-15 08:43 51°20.111 2°37.082 3.2 285 15.5 101640 96
2009-06-15 08:44 51°20.037 2°37.061 2.9 278 15.5 101630 97
2009-06-15 08:45 51°19.992 2°37.056 2.8 282 15.5 101630 97
2009-06-15 08:46 51°19.963 2°37.061 3 283 15.5 101630 97
2009-06-15 08:47 51°19.941 2°37.064 3.1 281 15.5 101630 97
2009-06-15 08:48 51°19.926 2°37.061 3.6 286 15.5 101630 97
2009-06-15 08:49 51°19.918 2°37.053 2.5 280 15.5 101630 97
2009-06-15 08:50 51°19.913 2°37.043 2.4 284 15.5 101630 96
2009-06-15 08:51 51°19.91 2°37.031 2.9 281 15.5 101640 96
2009-06-15 08:52 51°19.907 2°37.019 3.1 278 15.5 101630 96
2009-06-15 08:53 51°19.903 2°37.006 2.8 280 15.5 101630 96
2009-06-15 08:54 51°19.901 2°36.991 2.6 286 15.5 101630 96
2009-06-15 08:55 51°19.899 2°36.976 3.1 283 15.6 101630 96
2009-06-15 08:56 51°19.897 2°36.959 3.1 279 15.6 101630 96
2009-06-15 08:57 51°19.892 2°36.943 3.2 280 15.6 101630 96
2009-06-15 08:58 51°19.878 2°36.933 3.5 284 15.6 101630 96
2009-06-15 08:59 51°19.866 2°36.923 4.6 284 15.6 101630 96
2009-06-15 09:00 51°19.857 2°36.912 4.5 280 15.7 101630 96
2009-06-15 09:01 51°19.85 2°36.9 4.3 285 15.6 101620 96
2009-06-15 09:02 51°19.843 2°36.887 4.6 279 15.7 101630 96
2009-06-15 09:03 51°19.837 2°36.872 4.9 280 15.7 101630 95
2009-06-15 09:04 51°19.832 2°36.855 4.1 285 15.7 101640 95
2009-06-15 09:05 51°19.827 2°36.836 4.6 284 15.7 101640 95
2009-06-15 09:06 51°19.822 2°36.816 4.4 279 15.7 101640 95
2009-06-15 09:07 51°19.819 2°36.796 3.6 278 15.7 101650 95
2009-06-15 09:08 51°19.816 2°36.775 2.7 286 15.7 101650 95
2009-06-15 09:09 51°19.813 2°36.753 2.9 285 15.6 101650 95
2009-06-15 09:10 51°19.811 2°36.731 3.4 279 15.6 101660 95
2009-06-15 09:11 51°19.808 2°36.71 3.7 77 15.5 101660 95
2009-06-15 09:12 51°19.806 2°36.689 3.2 82 15.5 101650 95
2009-06-15 09:13 51°19.804 2°36.668 3 79 15.5 101650 95
2009-06-15 09:14 51°19.802 2°36.648 3.2 81 15.4 101660 95
2009-06-15 09:15 51°19.8 2°36.627 2.9 81 15.4 101660 95
2009-06-15 09:16 51°19.798 2°36.606 2.6 81 15.4 101660 95
2009-06-15 09:17 51°19.797 2°36.585 2.5 79 15.4 101660 96
2009-06-15 09:18 51°19.795 2°36.564 3 82 15.5 101660 96
2009-06-15 09:19 51°19.793 2°36.542 3 80 15.5 101660 95
2009-06-15 09:20 51°19.791 2°36.521 2.9 79 15.4 101660 95
2009-06-15 09:21 51°19.789 2°36.499 2.7 81 15.4 101660 95
2009-06-15 09:22 51°19.787 2°36.477 2.5 77 15.4 101650 95
2009-06-15 09:23 51°19.785 2°36.455 3.2 284 15.5 101650 95
2009-06-15 09:24 51°19.784 2°36.432 3.1 81 15.5 101650 95
2009-06-15 09:25 51°19.779 2°36.407 3 81 15.4 101650 95
2009-06-15 09:26 51°19.77 2°36.38 3 278 15.4 101650 95
2009-06-15 09:27 51°19.755 2°36.35 1.9 279 15.5 101660 95
2009-06-15 09:28 51°19.718 2°36.31 3.5 286 15.5 101650 95
2009-06-15 09:29 51°19.664 2°36.27 2.9 283 15.6 101660 91
2009-06-15 09:30 51°19.619 2°36.242 3 278 15.6 101660 91
2009-06-15 09:31 51°19.584 2°36.22 3.2 284 15.7 101660 91
2009-06-15 09:32 51°19.549 2°36.163 1.9 78 15.7 101660 91
2009-06-15 09:33 51°19.532 2°36.093 2.7 73 15.7 101660 93
2009-06-15 09:34 51°19.521 2°36.021 2.3 81 15.6 101650 91
2009-06-15 09:35 51°19.512 2°35.934 2.6 76 15.6 101650 92
2009-06-15 09:36 51°19.509 2°35.83 1.6 74 15.5 101650 93
2009-06-15 09:37 51°19.511 2°35.711 1.6 75 15.6 101640 93
2009-06-15 09:38 51°19.528 2°35.502 0.7 280 15.7 101630 93
2009-06-15 09:39 51°19.581 2°35.219 0.7 277 15.8 101630 93
2009-06-15 09:40 51°19.642 2°34.903 0.6 282 15.8 101620 93
2009-06-15 09:41 51°19.747 2°34.621 3 18 15.8 101600 93
2009-06-15 09:42 51°19.901 2°34.405 3.8 17 15.8 101590 92
2009-06-15 09:43 51°20.064 2°34.206 3.6 19 15.7 101580 89
2009-06-15 09:44 51°20.223 2°33.996 3.2 22 15.6 101570 90
2009-06-15 09:45 51°20.385 2°33.784 3.6 22 15.6 101560 90
2009-06-15 09:46 51°20.544 2°33.563 3.2 19 15.5 101550 92
2009-06-15 09:47 51°20.71 2°33.354 4.4 23 15.5 101550 93
2009-06-15 09:48 51°20.883 2°33.162 3.7 22 15.4 101550 94
2009-06-15 09:49 51°21.054 2°32.97 3.6 24 15.4 101550 95
2009-06-15 09:50 51°21.225 2°32.775 4.1 17 15.4 101560 95
2009-06-15 09:51 51°21.391 2°32.582 4 13 15.4 101560 95
2009-06-15 09:52 51°21.556 2°32.389 3.5 11 15.4 101560 95
2009-06-15 09:53 51°21.721 2°32.195 2.9 20 15.4 101560 94
2009-06-15 09:54 51°21.888 2°32.014 5.3 10 15.4 101570 94
2009-06-15 09:55 51°22.063 2°31.863 4.4 8 15.4 101570 95
2009-06-15 09:56 51°22.239 2°31.713 3.3 20 15.3 101550 94
2009-06-15 09:57 51°22.415 2°31.557 3.9 17 15.3 101560 94
2009-06-15 09:58 51°22.593 2°31.402 3.7 15 15.4 101570 95
2009-06-15 09:59 51°22.773 2°31.25 3.1 10 15.3 101560 94
2009-06-15 10:00 51°22.952 2°31.099 4.6 12 15.3 101570 94
2009-06-15 10:01 51°23.11 2°30.968 3.2 6 15.3 101570 94
2009-06-15 10:02 51°23.243 2°30.851 3.5 15 15.4 101570 95
2009-06-15 10:03 51°23.362 2°30.747 4.8 15 15.4 101580 94
2009-06-15 10:04 51°23.482 2°30.698 6.6 355 15.4 101580 94
2009-06-15 10:05 51°23.667 2°30.639 6.7 358 15.4 101570 95
2009-06-15 10:06 51°23.859 2°30.566 8.6 355 15.3 101570 95
2009-06-15 10:07 51°24.051 2°30.496 6.9 356 15.3 101570 95
2009-06-15 10:08 51°24.241 2°30.423 6.8 352 15.3 101580 95
2009-06-15 10:09 51°24.424 2°30.36 5.7 359 15.3 101580 95
2009-06-15 10:10 51°24.519 2°30.331 4.9 6 15.3 101590 95
2009-06-15 10:11 51°24.569 2°30.317 4.7 11 15.3 101590 95
2009-06-15 10:12 51°24.605 2°30.297 5 12 15.3 101590 95
2009-06-15 10:13 51°24.635 2°30.255 3.9 23 15.3 101590 96
2009-06-15 10:14 51°24.664 2°30.208 4.7 14 15.3 101600 96
2009-06-15 10:15 51°24.686 2°30.181 4.3 10 15.3 101590 95
2009-06-15 10:16 51°24.693 2°30.157 4.1 7 15.3 101600 95
2009-06-15 10:17 51°24.699 2°30.129 3.1 3 15.3 101600 95
2009-06-15 10:18 51°24.702 2°30.102 3.1 2 15.3 101600 95
2009-06-15 10:19 51°24.704 2°30.074 3.1 3 15.3 101600 95
2009-06-15 10:20 51°24.717 2°30.056 3.9 286 15.3 101600 95
2009-06-15 10:21 51°24.728 2°30.077 4.5 279 15.3 101600 95
2009-06-15 10:22 51°24.71 2°30.137 5.9 287 15.4 101590 95
2009-06-15 10:23 51°24.687 2°30.206 4.8 281 15.4 101590 95
2009-06-15 10:24 51°24.663 2°30.215 4.6 284 15.5 101590 95
2009-06-15 10:25 51°24.644 2°30.196 4.5 281 15.5 101590 95
2009-06-15 10:26 51°24.626 2°30.169 3.1 285 15.5 101590 95
2009-06-15 10:27 51°24.61 2°30.14 4.3 285 15.5 101590 95
2009-06-15 10:28 51°24.59 2°30.114 4.5 281 15.5 101590 94
2009-06-15 10:29 51°24.561 2°30.134 5 285 15.6 101600 94
2009-06-15 10:30 51°24.573 2°30.203 6.1 278 15.6 101590 94
2009-06-15 10:31 51°24.612 2°30.264 5.9 347 15.6 101590 94
2009-06-15 10:32 51°24.666 2°30.258 4.8 1 15.5 101580 94
2009-06-15 10:33 51°24.685 2°30.224 4.1 8 15.4 101580 94
2009-06-15 10:34 51°24.696 2°30.183 4.1 16 15.4 101580 94
2009-06-15 10:35 51°24.702 2°30.142 3.6 16 15.4 101580 94
2009-06-15 10:36 51°24.705 2°30.103 4.6 14 15.4 101580 94
2009-06-15 10:37 51°24.707 2°30.065 3.8 9 15.4 101580 94
2009-06-15 10:38 51°24.73 2°30.044 7.1 285 15.3 101570 94
2009-06-15 10:39 51°24.742 2°30.067 7.1 284 15.3 101560 94
2009-06-15 10:40 51°24.722 2°30.098 7.4 284 15.3 101560 94
2009-06-15 10:41 51°24.701 2°30.151 5.7 284 15.3 101560 94
2009-06-15 10:42 51°24.679 2°30.211 5.8 279 15.4 101560 94
2009-06-15 10:43 51°24.65 2°30.221 4.4 279 15.4 101570 94
2009-06-15 10:44 51°24.631 2°30.199 3.6 279 15.5 101580 94
2009-06-15 10:45 51°24.621 2°30.166 5.6 282 15.5 101580 94
2009-06-15 10:46 51°24.609 2°30.131 4.8 279 15.5 101590 93
2009-06-15 10:47 51°24.597 2°30.095 4.1 283 15.4 101590 94
2009-06-15 10:48 51°24.583 2°30.058 5 285 15.4 101590 93
2009-06-15 10:49 51°24.57 2°30.022 4.3 280 15.4 101590 94
2009-06-15 10:50 51°24.547 2°29.997 5.8 279 15.4 101590 94
2009-06-15 10:51 51°24.485 2°29.991 3.9 285 15.4 101600 94
2009-06-15 10:52 51°24.439 2°29.854 3.9 19 15.5 101610 94
2009-06-15 10:53 51°24.522 2°29.621 4.3 3 15.4 101600 93
2009-06-15 10:54 51°24.626 2°29.335 5.4 2 15.4 101600 93
2009-06-15 10:55 51°24.732 2°29.071 4.9 11 15.3 101610 93
2009-06-15 10:56 51°24.79 2°28.921 5 19 15.2 101610 94
2009-06-15 10:57 51°24.807 2°28.866 5.7 11 15.3 101610 94
2009-06-15 10:58 51°24.81 2°28.83 5.3 7 15.3 101600 94
2009-06-15 10:59 51°24.809 2°28.794 4.9 9 15.2 101600 94
2009-06-15 11:00 51°24.805 2°28.757 4.9 3 15.2 101610 95
2009-06-15 11:01 51°24.8 2°28.717 4.6 6 15.1 101610 95
2009-06-15 11:02 51°24.793 2°28.676 5.7 10 15.1 101610 95
2009-06-15 11:03 51°24.784 2°28.633 6.2 20 15.1 101610 95
2009-06-15 11:04 51°24.774 2°28.591 6.2 26 15.1 101610 95
2009-06-15 11:05 51°24.763 2°28.549 6.1 28 15.1 101610 95
2009-06-15 11:06 51°24.777 2°28.511 6.5 1 15.2 101610 95
2009-06-15 11:07 51°24.793 2°28.556 9.5 283 15.1 101600 95
2009-06-15 11:08 51°24.79 2°28.728 12.5 283 15.2 101590 95
2009-06-15 11:09 51°24.756 2°28.96 11.3 283 15.2 101580 95
2009-06-15 11:10 51°24.619 2°29.145 12.1 276 15.2 101560 95
2009-06-15 11:11 51°24.449 2°29.286 11.6 284 15.2 101560 95
2009-06-15 11:12 51°24.281 2°29.435 11.2 281 15.2 101570 95
2009-06-15 11:13 51°24.123 2°29.603 11.3 280 15.2 101560 93
2009-06-15 11:14 51°24.011 2°29.708 8.5 282 15.2 101570 92
2009-06-15 11:15 51°23.924 2°29.777 7.5 285 15.2 101580 92
2009-06-15 11:16 51°23.853 2°29.826 6.7 281 15.3 101580 92
2009-06-15 11:17 51°23.816 2°29.839 6.8 284 15.3 101590 91
2009-06-15 11:18 51°23.794 2°29.833 6.1 278 15.4 101600 91
2009-06-15 11:19 51°23.773 2°29.855 6.7 281 15.5 101600 91
2009-06-15 11:20 51°23.751 2°29.904 5.9 281 15.5 101600 91
2009-06-15 11:21 51°23.737 2°29.924 6 280 15.6 101610 90
2009-06-15 11:22 51°23.724 2°29.926 5.4 280 15.6 101610 90
2009-06-15 11:23 51°23.712 2°29.917 5.7 279 15.7 101610 90
2009-06-15 11:24 51°23.702 2°29.9 5.4 279 15.7 101610 89
2009-06-15 11:25 51°23.694 2°29.875 4.8 286 15.7 101610 89
2009-06-15 11:26 51°23.686 2°29.845 4.7 283 15.7 101620 89
2009-06-15 11:27 51°23.678 2°29.809 4.6 279 15.7 101620 89
2009-06-15 11:28 51°23.67 2°29.769 4 351 15.6 101620 90
2009-06-15 11:29 51°23.66 2°29.727 4 356 15.6 101620 90
2009-06-15 11:30 51°23.649 2°29.685 3.3 6 15.5 101620 91
2009-06-15 11:31 51°23.637 2°29.642 4.3 11 15.5 101620 91
2009-06-15 11:32 51°23.625 2°29.598 4.7 20 15.5 101620 91
2009-06-15 11:33 51°23.613 2°29.553 5.2 28 15.5 101610 91
2009-06-15 11:34 51°23.614 2°29.508 4 4 15.5 101610 91
2009-06-15 11:35 51°23.648 2°29.505 7.1 279 15.5 101600 91
2009-06-15 11:36 51°23.665 2°29.542 6.6 281 15.4 101590 91
2009-06-15 11:37 51°23.676 2°29.596 7.1 283 15.5 101590 91
2009-06-15 11:38 51°23.688 2°29.632 7.1 278 15.5 101590 91
2009-06-15 11:39 51°23.694 2°29.63 5.9 356 15.5 101590 90
2009-06-15 11:40 51°23.705 2°29.616 5.8 357 15.4 101590 91
2009-06-15 11:41 51°23.715 2°29.617 6.5 284 15.4 101600 91
2009-06-15 11:42 51°23.725 2°29.64 5.6 280 15.4 101600 91
2009-06-15 11:43 51°23.721 2°29.618 5.3 279 15.5 101610 92
2009-06-15 11:44 51°23.713 2°29.581 4.9 279 15.5 101610 91
2009-06-15 11:45 51°23.717 2°29.595 6.4 280 15.6 101610 91
2009-06-15 11:46 51°23.721 2°29.621 5.6 285 15.6 101620 91
2009-06-15 11:47 51°23.719 2°29.629 5.5 279 15.6 101610 91
2009-06-15 11:48 51°23.713 2°29.627 5.5 284 15.7 101610 91
2009-06-15 11:49 51°23.715 2°29.641 5.7 282 15.7 101610 91
2009-06-15 11:50 51°23.726 2°29.668 5.4 284 15.7 101600 91
2009-06-15 11:51 51°23.733 2°29.669 5.8 350 15.6 101600 91
2009-06-15 11:52 51°23.738 2°29.653 5.7 350 15.6 101590 91
2009-06-15 11:53 51°23.741 2°29.632 5.6 281 15.5 101600 91
2009-06-15 11:54 51°23.741 2°29.627 6.4 278 15.5 101600 92
2009-06-15 11:55 51°23.74 2°29.635 7.2 279 15.6 101600 92
2009-06-15 11:56 51°23.743 2°29.652 6.6 280 15.6 101600 91
2009-06-15 11:57 51°23.739 2°29.654 5.8 284 15.7 101610 91
2009-06-15 11:58 51°23.734 2°29.647 5.7 278 15.8 101610 91
2009-06-15 11:59 51°23.733 2°29.642 5.6 280 15.7 101610 90
2009-06-15 12:00 51°23.735 2°29.66 7.5 283 15.7 101600 90
2009-06-15 12:01 51°23.735 2°29.681 5.7 285 15.8 101600 91
2009-06-15 12:02 51°23.734 2°29.681 6.2 277 15.8 101600 90
2009-06-15 12:03 51°23.734 2°29.667 5.8 279 15.7 101600 90
2009-06-15 12:04 51°23.733 2°29.641 5.1 279 15.6 101600 90
2009-06-15 12:05 51°23.73 2°29.61 5.3 350 15.6 101600 91
2009-06-15 12:06 51°23.73 2°29.584 4.8 349 15.5 101600 91
2009-06-15 12:07 51°23.738 2°29.606 5.9 285 15.6 101590 91
2009-06-15 12:08 51°23.748 2°29.662 5.6 281 15.6 101590 91
2009-06-15 12:09 51°23.77 2°29.702 5.4 280 15.7 101590 91
2009-06-15 12:10 51°23.787 2°29.707 5.2 353 15.7 101580 91
2009-06-15 12:11 51°23.799 2°29.695 4.3 353 15.6 101590 90
2009-06-15 12:12 51°23.806 2°29.672 4.3 353 15.6 101580 89
2009-06-15 12:13 51°23.809 2°29.642 3.8 358 15.6 101580 88
2009-06-15 12:14 51°23.809 2°29.609 3.8 358 15.6 101580 91
2009-06-15 12:15 51°23.808 2°29.571 3.6 1 15.6 101590 90
2009-06-15 12:16 51°23.806 2°29.532 3.6 4 15.6 101590 91
2009-06-15 12:17 51°23.801 2°29.491 3.4 359 15.6 101580 91
2009-06-15 12:18 51°23.795 2°29.449 4 359 15.7 101580 91
2009-06-15 12:19 51°23.792 2°29.409 3.9 -999 15.7 101580 92
2009-06-15 12:20 51°23.822 2°29.411 5.8 348 15.6 101570 91
2009-06-15 12:21 51°23.854 2°29.519 7.8 279 15.6 101570 91
2009-06-15 12:22 51°23.871 2°29.725 8.9 281 15.7 101560 91
2009-06-15 12:23 51°23.825 2°29.962 10 280 15.8 101560 90
2009-06-15 12:24 51°23.722 2°30.173 9.9 283 15.9 101550 90
2009-06-15 12:25 51°23.609 2°30.373 10.2 277 16 101550 89
2009-06-15 12:26 51°23.494 2°30.585 9.2 281 16.1 101540 88
2009-06-15 12:27 51°23.378 2°30.805 10.5 283 16.1 101540 89
2009-06-15 12:28 51°23.266 2°31.028 9.6 280 16.1 101540 88
2009-06-15 12:29 51°23.156 2°31.253 10.3 276 16.1 101550 88
2009-06-15 12:30 51°23.046 2°31.476 10.7 280 16.1 101540 88
2009-06-15 12:31 51°22.937 2°31.702 8.7 281 16.1 101540 88
2009-06-15 12:32 51°22.806 2°31.904 8.7 278 16.1 101540 88
2009-06-15 12:33 51°22.663 2°32.094 7.9 282 16.1 101540 88
2009-06-15 12:34 51°22.518 2°32.283 9.8 278 16.1 101540 88
2009-06-15 12:35 51°22.375 2°32.478 9.3 280 16.1 101540 88
2009-06-15 12:36 51°22.234 2°32.676 9.3 284 16.1 101550 89
2009-06-15 12:37 51°22.093 2°32.877 8.6 279 16.1 101540 89
2009-06-15 12:38 51°21.952 2°33.081 8.9 279 16.1 101540 89
2009-06-15 12:39 51°21.808 2°33.282 8.8 281 16.1 101530 89
2009-06-15 12:40 51°21.666 2°33.485 9 282 16.1 101540 89
2009-06-15 12:41 51°21.521 2°33.684 9.2 277 16.1 101540 90
2009-06-15 12:42 51°21.379 2°33.881 9.7 277 16.1 101530 89
2009-06-15 12:43 51°21.242 2°34.08 8.2 284 16.2 101540 88
2009-06-15 12:44 51°21.101 2°34.275 9.3 284 16.2 101530 88
2009-06-15 12:45 51°20.958 2°34.469 10.3 284 16.2 101520 87
2009-06-15 12:46 51°20.815 2°34.662 10.3 281 16.2 101520 87
2009-06-15 12:47 51°20.676 2°34.863 8.7 279 16.3 101530 87
2009-06-15 12:48 51°20.535 2°35.062 10.5 285 16.3 101520 86
2009-06-15 12:49 51°20.419 2°35.228 9.7 282 16.3 101520 87
2009-06-15 12:50 51°20.352 2°35.417 10.4 277 16.3 101520 87
2009-06-15 12:51 51°20.309 2°35.618 8.9 286 16.4 101520 86
2009-06-15 12:52 51°20.271 2°35.832 10.2 283 16.4 101520 86
2009-06-15 12:53 51°20.226 2°36.066 9.7 281 16.4 101510 86
2009-06-15 12:54 51°20.177 2°36.304 9.4 278 16.4 101510 86
2009-06-15 12:55 51°20.13 2°36.516 9.1 286 16.4 101510 87
2009-06-15 12:56 51°20.09 2°36.605 6.7 280 16.4 101520 87
2009-06-15 12:57 51°20.058 2°36.613 5.6 284 16.3 101530 86
2009-06-15 12:58 51°20.033 2°36.603 5.7 279 16.4 101520 87
2009-06-15 12:59 51°20.008 2°36.583 5.2 285 16.3 101520 87
2009-06-15 13:00 51°19.984 2°36.555 5.5 281 16.4 101520 87
2009-06-15 13:01 51°19.963 2°36.518 6.3 278 16.4 101530 88
2009-06-15 13:02 51°19.946 2°36.476 7.1 279 16.4 101520 87
2009-06-15 13:03 51°19.934 2°36.433 5.2 279 16.5 101520 87
2009-06-15 13:04 51°19.925 2°36.395 5.7 281 16.4 101540 87
2009-06-15 13:05 51°19.917 2°36.359 5.7 74 16.3 101540 87
2009-06-15 13:06 51°19.909 2°36.327 6.7 81 16.3 101540 87
2009-06-15 13:07 51°19.902 2°36.299 7.2 81 16.2 101530 87
2009-06-15 13:08 51°19.895 2°36.271 6.9 74 16.2 101530 87
2009-06-15 13:09 51°19.886 2°36.244 6.2 79 16.2 101530 87
2009-06-15 13:10 51°19.877 2°36.218 7.5 82 16.1 101520 88
2009-06-15 13:11 51°19.867 2°36.191 7.1 77 16.1 101520 88
2009-06-15 13:12 51°19.855 2°36.165 4.9 82 16.1 101520 88
2009-06-15 13:13 51°19.843 2°36.141 5.9 80 16.1 101520 88
2009-06-15 13:14 51°19.828 2°36.117 3.7 80 16.2 101520 89
2009-06-15 13:15 51°19.813 2°36.092 6.6 76 16.5 101520 87
2009-06-15 13:16 51°19.795 2°36.065 5.2 77 16.4 101520 85
2009-06-15 13:17 51°19.777 2°36.038 6.3 79 16.3 101520 86
2009-06-15 13:18 51°19.758 2°36.005 5.3 75 16.2 101520 86
2009-06-15 13:19 51°19.74 2°35.968 5.7 80 16.2 101530 87
2009-06-15 13:20 51°19.723 2°35.928 5.7 80 16.2 101520 87
2009-06-15 13:21 51°19.707 2°35.886 5.3 75 16.2 101520 87
2009-06-15 13:22 51°19.691 2°35.844 4.8 43 16.2 101520 87
2009-06-15 13:23 51°19.677 2°35.802 5.3 43 16.2 101530 87
2009-06-15 13:24 51°19.662 2°35.76 5.6 39 16.1 101530 87
2009-06-15 13:25 51°19.647 2°35.72 4.7 40 16.2 101530 87
2009-06-15 13:26 51°19.632 2°35.68 5.4 37 16.2 101530 87
2009-06-15 13:27 51°19.618 2°35.641 5.8 31 16.2 101530 87
2009-06-15 13:28 51°19.602 2°35.603 6.2 28 16.2 101520 87
2009-06-15 13:29 51°19.587 2°35.565 6 23 16.2 101530 87
2009-06-15 13:30 51°19.572 2°35.527 5.9 22 16.2 101530 87
2009-06-15 13:31 51°19.556 2°35.49 5.2 23 16.3 101530 87
2009-06-15 13:32 51°19.54 2°35.454 5.9 20 16.3 101530 87
2009-06-15 13:33 51°19.523 2°35.416 6.2 22 16.3 101530 87
2009-06-15 13:34 51°19.507 2°35.378 5 20 16.3 101530 86
2009-06-15 13:35 51°19.49 2°35.342 4.9 25 16.3 101530 87
2009-06-15 13:36 51°19.473 2°35.305 5.4 26 16.3 101530 87
2009-06-15 13:37 51°19.457 2°35.268 4.7 32 16.3 101520 87
2009-06-15 13:38 51°19.44 2°35.232 4.8 31 16.3 101520 88
2009-06-15 13:39 51°19.423 2°35.196 4.8 31 16.3 101520 88
2009-06-15 13:40 51°19.407 2°35.16 4.3 28 16.3 101520 88
2009-06-15 13:41 51°19.425 2°35.141 6.4 347 16.3 101510 88
2009-06-15 13:42 51°19.475 2°35.287 9.3 282 16.2 101500 89
2009-06-15 13:43 51°19.595 2°35.465 10.2 278 16.3 101490 88
2009-06-15 13:44 51°19.713 2°35.661 9.6 285 16.2 101480 88
2009-06-15 13:45 51°19.822 2°35.864 12 282 16.3 101490 88
2009-06-15 13:46 51°19.894 2°36.109 12.1 280 16.3 101480 88
2009-06-15 13:47 51°19.967 2°36.357 10.7 277 16.3 101480 88
2009-06-15 13:48 51°20.009 2°36.603 8.7 280 16.4 101480 88
2009-06-15 13:49 51°20.037 2°36.711 7.2 352 16.4 101490 88
2009-06-15 13:50 51°20.055 2°36.715 6.1 9 16.3 101500 88
2009-06-15 13:51 51°20.064 2°36.69 6.3 16 16.2 101500 88
2009-06-15 13:52 51°20.068 2°36.66 6.4 18 16.2 101500 89
2009-06-15 13:53 51°20.067 2°36.63 6 13 16.2 101500 89
2009-06-15 13:54 51°20.063 2°36.6 6 14 16.2 101500 89
2009-06-15 13:55 51°20.057 2°36.567 6.1 16 16.2 101490 88
2009-06-15 13:56 51°20.049 2°36.536 3.3 12 16.3 101490 88
2009-06-15 13:57 51°20.045 2°36.507 5.3 8 16.3 101490 88
2009-06-15 13:58 51°20.049 2°36.496 5.5 278 16.3 101490 88
2009-06-15 13:59 51°20.052 2°36.513 6 283 16.2 101490 88
2009-06-15 14:00 51°20.059 2°36.557 6.8 280 16.2 101500 88
2009-06-15 14:01 51°20.068 2°36.605 6.5 344 16.3 101500 88
2009-06-15 14:02 51°20.073 2°36.629 6.8 349 16.2 101500 88
2009-06-15 14:03 51°20.076 2°36.635 5.4 356 16.2 101500 87
2009-06-15 14:04 51°20.077 2°36.629 4.8 356 16.2 101500 87
2009-06-15 14:05 51°20.075 2°36.615 5.8 359 16.2 101510 87
2009-06-15 14:06 51°20.073 2°36.597 4.7 358 16.2 101510 87
2009-06-15 14:07 51°20.069 2°36.578 4.6 360 16.2 101500 88
2009-06-15 14:08 51°20.064 2°36.555 4.3 360 16.2 101500 87
2009-06-15 14:09 51°20.057 2°36.53 4.6 4 16.2 101500 88
2009-06-15 14:10 51°20.05 2°36.502 5.7 7 16.2 101500 88
2009-06-15 14:11 51°20.042 2°36.472 5.5 10 16.2 101500 88
2009-06-15 14:12 51°20.034 2°36.441 5.2 19 16.3 101500 88
2009-06-15 14:13 51°20.024 2°36.409 5.4 22 16.3 101500 88
2009-06-15 14:14 51°20.013 2°36.377 5 25 16.3 101500 87
2009-06-15 14:15 51°20.002 2°36.344 5.4 28 16.4 101500 88
2009-06-15 14:16 51°19.991 2°36.314 5.4 28 16.4 101500 88
2009-06-15 14:17 51°19.999 2°36.287 4.8 6 16.4 101500 88
2009-06-15 14:18 51°20.013 2°36.307 7.1 284 16.3 101490 87
2009-06-15 14:19 51°19.983 2°36.36 7.8 277 16.4 101490 88
2009-06-15 14:20 51°19.937 2°36.394 7.8 278 16.4 101480 87
2009-06-15 14:21 51°19.898 2°36.427 8.3 285 16.5 101490 86
2009-06-15 14:22 51°19.908 2°36.521 7.9 277 16.6 101480 86
2009-06-15 14:23 51°19.956 2°36.626 8.6 283 16.5 101480 86
2009-06-15 14:24 51°19.986 2°36.676 6.4 359 16.4 101480 86
2009-06-15 14:25 51°20.009 2°36.683 5.4 5 16.4 101490 87
2009-06-15 14:26 51°20.024 2°36.676 5.5 6 16.3 101490 88
2009-06-15 14:27 51°20.031 2°36.66 6.1 10 16.3 101490 87
2009-06-15 14:28 51°20.024 2°36.634 5.3 13 16.4 101500 88
2009-06-15 14:29 51°20.014 2°36.605 5.3 24 16.4 101490 88
2009-06-15 14:30 51°20.003 2°36.578 5.5 27 16.4 101490 87
2009-06-15 14:31 51°19.992 2°36.55 5.1 32 16.4 101490 88
2009-06-15 14:32 51°19.981 2°36.522 5.2 34 16.5 101490 87
2009-06-15 14:33 51°19.97 2°36.496 5.2 36 16.5 101490 87
2009-06-15 14:34 51°19.959 2°36.469 4.6 37 16.5 101490 87
2009-06-15 14:35 51°19.947 2°36.444 4.1 37 16.5 101490 87
2009-06-15 14:36 51°19.936 2°36.419 4.7 34 16.5 101480 87
2009-06-15 14:37 51°19.925 2°36.394 4.7 33 16.5 101490 87
2009-06-15 14:38 51°19.912 2°36.369 4.8 34 16.5 101490 87
2009-06-15 14:39 51°19.9 2°36.345 4.8 33 16.5 101490 87
2009-06-15 14:40 51°19.888 2°36.322 4.7 35 16.5 101490 87
2009-06-15 14:41 51°19.876 2°36.299 4.6 32 16.5 101480 86
2009-06-15 14:42 51°19.863 2°36.276 5 36 16.6 101480 86
2009-06-15 14:43 51°19.851 2°36.255 4.6 36 16.6 101480 86
2009-06-15 14:44 51°19.838 2°36.234 3.7 35 16.6 101480 86
2009-06-15 14:45 51°19.827 2°36.214 4 36 16.6 101480 86
2009-06-15 14:46 51°19.815 2°36.194 3.8 40 16.6 101490 86
2009-06-15 14:47 51°19.812 2°36.169 3.4 18 16.5 101490 86
2009-06-15 14:48 51°19.854 2°36.205 6.9 281 16.5 101490 86
2009-06-15 14:49 51°19.9 2°36.374 7.3 279 16.5 101480 86
2009-06-15 14:50 51°19.977 2°36.507 6.2 280 16.6 101480 86
2009-06-15 14:51 51°20.026 2°36.589 5.3 279 16.5 101490 86
2009-06-15 14:52 51°20.044 2°36.642 5.2 278 16.5 101490 87
2009-06-15 14:53 51°20.049 2°36.677 5 286 16.5 101490 87
2009-06-15 14:54 51°20.048 2°36.678 3.6 281 16.6 101490 86
2009-06-15 14:55 51°20.043 2°36.668 3.8 349 16.5 101490 86
2009-06-15 14:56 51°20.039 2°36.655 3.5 356 16.5 101490 85
2009-06-15 14:57 51°20.034 2°36.642 3.4 5 16.5 101490 86
2009-06-15 14:58 51°20.029 2°36.628 4 9 16.5 101490 86
2009-06-15 14:59 51°20.024 2°36.613 4 18 16.5 101490 87
2009-06-15 15:00 51°20.019 2°36.599 3.8 21 16.6 101490 86
2009-06-15 15:01 51°20.015 2°36.584 3.7 26 16.6 101480 86
2009-06-15 15:02 51°20.01 2°36.57 3.4 32 16.6 101490 85
2009-06-15 15:03 51°20.006 2°36.557 3.7 36 16.6 101480 86
2009-06-15 15:04 51°20.002 2°36.543 3.4 37 16.6 101480 86
2009-06-15 15:05 51°19.998 2°36.531 3.1 38 16.6 101480 86
2009-06-15 15:06 51°19.994 2°36.517 3.6 39 16.6 101480 86
2009-06-15 15:07 51°19.99 2°36.504 3.7 39 16.6 101480 86
2009-06-15 15:08 51°19.986 2°36.492 3.5 38 16.6 101480 86
2009-06-15 15:09 51°19.982 2°36.48 3.2 38 16.7 101480 85
2009-06-15 15:10 51°19.978 2°36.468 3.2 38 16.7 101480 85
2009-06-15 15:11 51°19.974 2°36.456 3.7 36 16.7 101480 85
2009-06-15 15:12 51°19.97 2°36.444 3 35 16.8 101480 86
2009-06-15 15:13 51°19.966 2°36.434 3 36 16.7 101480 86
2009-06-15 15:14 51°19.961 2°36.425 3.3 35 16.7 101480 86
2009-06-15 15:15 51°19.957 2°36.416 3 38 16.8 101480 85
2009-06-15 15:16 51°19.953 2°36.407 3.7 36 16.7 101480 86
2009-06-15 15:17 51°19.949 2°36.398 3.1 37 16.7 101480 85
2009-06-15 15:18 51°19.949 2°36.383 2.8 34 16.8 101480 86
2009-06-15 15:19 51°19.975 2°36.347 2.6 24 16.8 101480 85
2009-06-15 15:20 51°20.018 2°36.301 2.3 24 16.8 101480 85
2009-06-15 15:21 51°20.055 2°36.262 2.5 28 16.8 101470 85
2009-06-15 15:22 51°20.084 2°36.231 2.7 29 16.8 101480 85
2009-06-15 15:23 51°20.109 2°36.207 2.8 27 16.8 101470 85
2009-06-15 15:24 51°20.13 2°36.187 2.9 27 16.8 101470 86
2009-06-15 15:25 51°20.15 2°36.172 2.8 26 16.8 101470 86
2009-06-15 15:26 51°20.168 2°36.16 3.4 25 16.8 101470 85
2009-06-15 15:27 51°20.185 2°36.15 3 28 16.8 101470 85
2009-06-15 15:28 51°20.201 2°36.141 3 26 16.8 101470 85
2009-06-15 15:29 51°20.216 2°36.134 2.9 25 16.8 101470 85
2009-06-15 15:30 51°20.23 2°36.129 2.9 25 16.8 101470 85
2009-06-15 15:31 51°20.244 2°36.125 2.9 24 16.9 101470 85
2009-06-15 15:32 51°20.254 2°36.122 2.9 22 16.9 101470 85
2009-06-15 15:33 51°20.262 2°36.121 3.4 22 16.9 101470 85
2009-06-15 15:34 51°20.269 2°36.121 3.3 19 16.9 101470 85
2009-06-15 15:35 51°20.275 2°36.122 2.9 18 16.8 101470 86
2009-06-15 15:36 51°20.28 2°36.123 3.1 19 16.9 101470 86
2009-06-15 15:37 51°20.288 2°36.128 3 6 16.9 101470 86
2009-06-15 15:38 51°20.31 2°36.192 4.5 278 16.8 101460 86
2009-06-15 15:39 51°20.286 2°36.359 7.6 279 16.9 101470 87
2009-06-15 15:40 51°20.211 2°36.611 9.2 278 17 101460 86
2009-06-15 15:41 51°20.12 2°36.879 7.8 286 17 101460 86
2009-06-15 15:42 51°20.019 2°37.139 9.2 283 17.1 101460 85
2009-06-15 15:43 51°19.921 2°37.403 7.5 279 17.1 101460 85
2009-06-15 15:44 51°19.822 2°37.667 7.4 286 17.2 101460 85
2009-06-15 15:45 51°19.725 2°37.933 8.1 281 17.2 101460 85
2009-06-15 15:46 51°19.632 2°38.201 8.4 279 17.2 101470 85
2009-06-15 15:47 51°19.539 2°38.471 8.3 284 17.2 101460 85
2009-06-15 15:48 51°19.446 2°38.74 7.4 279 17.2 101460 85
2009-06-15 15:49 51°19.341 2°38.993 8.3 283 17.2 101460 84
2009-06-15 15:50 51°19.232 2°39.242 7.8 279 17.2 101460 83
2009-06-15 15:51 51°19.126 2°39.496 7.8 284 17.2 101460 83
2009-06-15 15:52 51°19.022 2°39.754 8.8 279 17.3 101460 84
2009-06-15 15:53 51°18.917 2°40.012 8.9 282 17.3 101450 83
2009-06-15 15:54 51°18.813 2°40.27 9.9 279 17.3 101450 82
2009-06-15 15:55 51°18.707 2°40.532 7.7 286 17.3 101450 81
2009-06-15 15:56 51°18.597 2°40.802 9.4 281 17.4 101450 82
2009-06-15 15:57 51°18.488 2°41.068 7.1 277 17.4 101450 80
2009-06-15 15:58 51°18.381 2°41.332 8.4 284 17.5 101450 81
2009-06-15 15:59 51°18.275 2°41.59 7.6 280 17.5 101450 82
2009-06-15 16:00 51°18.169 2°41.848 8.4 286 17.5 101450 82
2009-06-15 16:01 51°18.064 2°42.108 7.9 279 17.5 101440 80
2009-06-15 16:02 51°17.957 2°42.367 8.9 279 17.6 101450 82
2009-06-15 16:03 51°17.853 2°42.63 7.7 284 17.5 101440 80
2009-06-15 16:04 51°17.745 2°42.893 6.7 281 17.5 101450 82
2009-06-15 16:05 51°17.635 2°43.16 7.7 283 17.5 101440 83
2009-06-15 16:06 51°17.523 2°43.431 8.1 280 17.5 101440 83
2009-06-15 16:07 51°17.415 2°43.698 7.9 281 17.5 101450 84
2009-06-15 16:08 51°17.307 2°43.958 7.8 280 17.5 101440 83
2009-06-15 16:09 51°17.2 2°44.217 7.6 278 17.5 101440 84
2009-06-15 16:10 51°17.088 2°44.472 6.9 279 17.5 101440 82
2009-06-15 16:11 51°16.976 2°44.733 7.4 279 17.5 101440 82
2009-06-15 16:12 51°16.868 2°44.995 7.3 278 17.6 101440 81
2009-06-15 16:13 51°16.749 2°45.245 6.2 279 17.6 101440 81
2009-06-15 16:14 51°16.628 2°45.489 7.2 284 17.6 101440 81
2009-06-15 16:15 51°16.497 2°45.712 6.2 281 17.6 101440 79
2009-06-15 16:16 51°16.35 2°45.906 5.9 281 17.7 101440 80
2009-06-15 16:17 51°16.202 2°46.101 6.2 284 17.7 101450 80
2009-06-15 16:18 51°16.092 2°46.355 6.2 285 17.8 101440 80
2009-06-15 16:19 51°16.037 2°46.666 6.1 279 17.8 101440 81
2009-06-15 16:20 51°15.982 2°46.983 5.9 281 17.8 101440 81
2009-06-15 16:21 51°15.899 2°47.28 5.7 283 17.7 101430 81
2009-06-15 16:22 51°15.807 2°47.569 3.3 285 17.8 101440 82
2009-06-15 16:23 51°15.715 2°47.857 5.8 279 17.8 101430 81
2009-06-15 16:24 51°15.625 2°48.143 4.7 278 17.9 101430 81
2009-06-15 16:25 51°15.568 2°48.441 3.9 280 18 101430 80
2009-06-15 16:26 51°15.593 2°48.764 3.7 285 18.1 101430 78
2009-06-15 16:27 51°15.617 2°49.092 4.7 284 18.2 101430 78
2009-06-15 16:28 51°15.633 2°49.423 3.4 279 18.3 101430 78
2009-06-15 16:29 51°15.641 2°49.757 4.5 284 18.3 101430 78
2009-06-15 16:30 51°15.63 2°50.092 3.8 279 18.3 101430 78
2009-06-15 16:31 51°15.607 2°50.421 4.7 282 18.4 101420 78
2009-06-15 16:32 51°15.581 2°50.751 5.2 279 18.4 101430 78
2009-06-15 16:33 51°15.547 2°51.077 5.2 280 18.3 101430 76
2009-06-15 16:34 51°15.484 2°51.387 5.2 278 18.4 101420 77
2009-06-15 16:35 51°15.41 2°51.688 4.7 280 18.4 101420 78
2009-06-15 16:36 51°15.33 2°51.984 4.8 277 18.3 101420 77
2009-06-15 16:37 51°15.252 2°52.283 4.4 278 18.2 101420 78
2009-06-15 16:38 51°15.176 2°52.581 4.3 279 18.1 101420 79
2009-06-15 16:39 51°15.097 2°52.878 4.8 276 18.1 101420 80
2009-06-15 16:40 51°15.013 2°53.171 5.1 280 18 101420 80
2009-06-15 16:41 51°14.932 2°53.465 4.5 281 18 101420 80
2009-06-15 16:42 51°14.85 2°53.761 4.4 346 18 101420 80
2009-06-15 16:43 51°14.765 2°54.058 4.2 284 17.9 101420 79
2009-06-15 16:44 51°14.675 2°54.351 4.5 279 17.9 101420 79
2009-06-15 16:45 51°14.572 2°54.632 4.3 353 18 101410 80
2009-06-15 16:46 51°14.46 2°54.904 4.2 352 17.9 101420 81
2009-06-15 16:47 51°14.331 2°55.149 5 356 17.8 101420 81
2009-06-15 16:48 51°14.199 2°55.335 5.2 350 17.8 101420 82
2009-06-15 16:49 51°14.066 2°55.451 4.6 351 17.8 101420 80
2009-06-15 16:50 51°13.946 2°55.544 4.2 283 18.2 101420 73
2009-06-15 16:51 51°13.824 2°55.635 6 285 18.6 101420 69
2009-06-15 16:52 51°13.735 2°55.743 4.3 279 18.8 101410 66
2009-06-15 16:53 51°13.688 2°55.848 3.8 279 19 101420 64
2009-06-15 16:54 51°13.667 2°55.934 2.6 279 19.1 101420 63
2009-06-15 16:55 51°13.663 2°55.959 1.5 346 19.2 101420 63
2009-06-15 16:56 51°13.66 2°55.959 2 353 19.3 101420 63
2009-06-15 16:57 51°13.663 2°55.961 1.3 1 19.4 101420 62
2009-06-15 16:58 51°13.664 2°55.962 1.1 18 19.4 101420 63
2009-06-15 16:59 51°13.664 2°55.961 2.3 80 19.5 101420 64